Location: Unspecified
(48.8656°N, 0.0000°E)
Time: 06:07:47
(UTC+00:00)

Vanguard 1 Rocket - Pass Details

Date: 24 June 2019
Orbit: 651 x 4225 km, 34.3° (Epoch: 14 July)

Event Time Altitude Azimuth Distance (km) Brightness Sun altitude
Rises 15:00:42 0° 213° (SSW) 8,314 12.8 46.8°
Reaches altitude 10° 15:08:13 10° 204° (SSW) 6,958 12.5 45.7°
Maximum altitude 15:24:09 27° 156° (SSE) 4,411 11.1 43.1°
Drops below altitude 10° 15:34:35 10° 105° (ESE) 4,513 10.6 41.5°
Sets 15:38:05 0° 94° (E) 5,062 10.8 40.9°
